Location: Hackbridge
(51.3833°N, 0.1500°W)
Time: 22:30:29
(UTC+00:00)

Cosmos 2278 Rocket - Pass Details

Date: 13 October 2019
Orbit: 840 x 847 km, 71.0° (Epoch: 17 November)

Event Time Altitude Azimuth Distance (km) Brightness Sun altitude
Rises 18:51:31 0° 171° (S) 3,391 5.2 -16.2°
Reaches altitude 10° 18:54:17 10° 159° (SSE) 2,462 4.3 -16.6°
Enters shadow 18:57:42 25° 125° (SE) 1,655 3.2 -17.2°
